CAPE
1879 1986 1642 1774 1887 1888 1976 1738 1981 2052 1845 1487 1462 1289 1239 1162 1444 1350 1260 1247 921 922 536 478 703 836 1038 746 563 765 1207 1327 1829 1320 1208 1264 1027 806 1307 1420 1370 1230 979 460 804 166 373 291 322 341 718 936 662 790 1212 469 322 302 361 465 306 304 600
1684 1687 1668 1650 1618 1566 1592 1633 1650 1901 1893 1680 1335 1168 868 846 978 991 671 408 660 800 464 579 517 942 843 917 662 907 1031 1555 1583 1534 1299 1057 668 670 1101 650 625 680 997 964 648 896 464 560 381 764 628 583 794 670 546 722 643 290 563 483 236 314 568
1606 1622 1678 1586 1312 1621 1650 1647 1532 1672 1698 1617 1751 1847 1343 1082 908 602 911 1013 1108 677 372 513 466 718 698 923 714 508 1024 1010 1417 1551 1557 736 718 1049 997 930 541 490 1281 696 629 592 922 296 424 556 731 723 520 710 934 713 1019 370 318 548 499 520 374
1492 1550 1586 1538 1634 1701 1731 1695 1624 1472 1461 1604 1840 1776 1040 963 825 691 919 1126 482 293 224 368 598 926 676 893 774 888 812 620 929 1028 973 733 1423 1251 1504 999 497 751 808 512 684 725 820 681 895 722 363 338 562 412 859 655 528 379 418 605 444 422 423
1242 1153 1116 1253 1194 1423 1506 1117 1595 1416 1474 1681 1729 1726 1448 1072 914 732 608 877 516 400 274 292 402 1116 1309 838 691 488 684 592 653 695 494 573 1780 1293 1452 1080 1176 1328 974 632 429 495 788 828 423 394 414 564 777 635 630 1074 769 422 237 372 361 315 425
1078 1166 1143 1218 1199 1100 1272 1082 1214 1096 1254 1534 1604 1551 1311 1113 987 840 730 634 617 484 630 676 894 1198 1116 629 564 592 517 520 562 657 528 1331 1609 1342 1391 1396 1381 1010 782 794 970 1010 856 715 690 406 177 421 522 379 538 468 441 497 216 258 282 232 298
1242 1195 1192 1146 1139 1470 1386 1258 1178 1290 855 1140 1590 1426 1406 1259 1110 1092 778 737 812 751 615 768 764 792 750 548 644 710 674 470 552 488 607 1259 1314 1123 970 1298 1231 1015 1257 1008 486 683 498 661 644 270 337 288 335 326 606 738 912 548 196 178 183 173 218
893 973 1061 953 890 965 857 1460 1399 1038 1018 810 774 1517 1280 1212 1327 1175 1002 899 852 885 918 930 789 516 506 526 829 563 1079 525 344 775 996 846 788 1056 1269 1436 1398 1227 848 722 403 552 596 610 422 384 423 333 478 394 333 318 202 118 92 187 158 100 261
337 488 787 956 1161 1359 1353 995 1565 1445 1080 958 768 651 874 1086 1228 1094 1084 992 811 869 1026 708 362 316 502 1186 1283 1115 444 339 538 703 966 792 927 980 748 765 1147 1002 1130 649 815 1149 738 494 445 571 495 310 351 347 331 349 243 110 205 213 200 189 252
25 154 391 862 1150 1277 1314 1469 1519 1623 1255 656 606 674 1067 756 877 1196 1140 1085 932 918 948 1063 1016 996 990 992 1184 855 446 473 1012 1066 802 844 940 448 372 380 960 1037 1416 802 572 288 542 811 541 751 595 316 451 544 306 318 282 348 321 176 276 416 364
5 15 184 393 676 916 1186 1295 1182 1322 1527 1104 506 449 460 719 725 1234 1136 1045 1060 1004 951 956 1004 934 1067 1024 991 791 633 1109 728 808 731 542 412 435 430 368 1067 1053 1039 491 494 1075 1003 1060 942 597 778 621 555 585 364 323 495 418 380 418 325 245 419
5 3 3 21 185 437 724 916 743 641 952 644 602 707 610 756 919 1340 1375 1258 996 970 910 837 1002 663 503 370 378 291 586 836 700 778 833 618 475 404 202 763 1032 1243 1080 616 863 1212 962 797 1411 1523 788 645 744 734 691 817 622 432 403 428 340 383 351
6 6 9 7 61 437 504 664 706 685 698 859 598 609 595 953 1112 646 863 1274 1052 940 802 965 930 393 316 234 320 404 1048 397 432 671 608 728 659 558 514 591 445 487 768 689 539 496 1009 1121 1463 1292 1023 1078 791 870 603 1017 568 576 518 782 467 266 308
5 8 7 10 9 11 201 463 644 735 742 830 873 1093 821 810 973 1035 964 975 1043 947 1014 763 1007 880 358 379 405 548 606 936 1001 728 917 927 608 594 535 495 397 540 1012 698 1078 830 553 1251 1329 1348 1280 1106 951 764 539 710 460 206 626 766 831 336 366
0 5 5 7 7 6 7 6 356 469 666 739 848 1042 1148 842 1020 698 886 454 504 920 763 935 622 596 822 579 308 443 692 1095 423 686 1028 1120 725 639 668 468 298 518 714 956 752 1080 718 1234 1120 795 743 815 593 803 926 505 627 552 490 877 644 245 234
2 2 4 6 5 4 6 6 8 200 396 488 563 994 735 838 1045 699 514 697 593 551 849 708 667 814 396 475 692 437 890 476 804 575 613 470 549 670 695 612 713 411 365 311 496 590 640 1218 1006 519 572 873 864 776 309 561 676 535 574 527 624 383 336
4 3 1 4 4 3 6 6 7 9 54 356 435 617 872 651 608 732 643 522 699 802 566 738 1248 1170 956 490 509 440 532 478 463 349 700 544 531 458 809 891 854 640 160 241 520 1149 1297 1534 1248 853 758 1005 830 624 516 834 576 476 706 139 252 236 297
0 2 0 3 4 2 2 6 6 5 6 30 220 360 605 769 632 556 1035 716 674 917 571 496 454 450 1058 723 600 554 339 231 202 262 601 650 623 484 457 818 1070 894 448 583 794 820 1266 1258 724 506 541 527 647 651 980 717 859 589 573 573 424 339 293
0 3 1 0 1 3 3 2 1 4 5 3 4 101 276 605 786 756 499 493 520 592 544 502 502 427 381 478 439 606 789 907 488 477 419 522 428 817 969 711 667 531 395 671 664 799 547 1158 913 800 426 445 346 546 877 698 836 722 533 401 564 281 139
0 1 1 2 0 1 2 2 1 0 1 1 2 2 6 98 391 678 672 392 356 461 561 480 449 576 589 424 533 951 998 1134 652 316 349 383 530 728 1096 1122 838 727 799 872 616 447 738 1129 812 917 748 883 338 486 1090 800 792 628 387 528 539 465 180
1 1 0 2 0 2 0 0 1 1 0 0 1 1 0 11 14 202 503 582 470 388 510 445 483 521 603 406 492 642 732 1010 786 811 724 841 662 922 799 1005 1026 1030 971 1372 1329 1260 601 456 792 981 935 980 742 464 714 570 661 530 753 500 502 528 60
8 2 3 2 2 0 0 2 0 0 0 0 2 0 0 1 34 89 215 385 404 370 402 344 399 468 609 518 379 271 434 459 518 654 512 635 606 667 844 599 639 785 928 930 908 877 648 576 995 859 1275 690 738 469 559 607 501 498 430 402 303 287 107
3 3 0 2 1 0 1 0 1 1 1 3 2 2 0 0 3 70 120 174 303 489 341 412 424 383 301 324 368 348 631 623 934 1176 1288 1183 1031 860 722 688 689 436 357 372 589 597 503 265 308 348 569 747 508 431 215 218 361 525 401 246 85 315 323
6 2 4 2 2 2 0 0 0 1 2 5 4 2 4 3 1 1 14 92 186 223 288 288 255 350 388 320 354 458 537 549 688 723 488 484 1025 579 622 608 684 452 321 324 451 496 327 282 236 424 532 475 821 911 761 778 842 696 287 296 306 327 552
4 4 6 2 0 0 1 0 0 1 4 4 3 6 5 4 5 4 4 16 10 69 235 269 278 247 330 301 277 315 392 457 504 595 575 513 440 947 981 685 363 286 250 330 297 282 411 524 444 534 510 347 346 271 430 1004 1081 497 479 280 293 77 193
4 6 5 3 3 5 2 1 1 1 1 3 4 4 5 7 4 5 3 2 70 72 31 254 302 230 270 274 283 273 268 536 358 517 485 534 492 542 576 497 300 253 326 480 382 447 365 372 474 576 400 381 369 326 312 271 551 1418 1061 669 517 559 527
6 6 6 5 4 5 4 5 4 4 2 2 3 3 5 4 4 5 4 3 16 100 156 219 283 260 236 255 239 232 247 316 518 425 589 617 444 328 297 438 467 447 363 492 633 461 653 589 523 476 410 406 391 446 484 462 399 388 786 641 709 581 606
6 6 6 6 4 4 5 5 4 3 3 2 1 3 2 3 2 4 3 3 2 30 126 210 266 248 250 280 268 175 36 162 425 408 338 325 351 557 384 306 275 447 423 567 592 788 750 654 544 626 659 636 704 344 398 439 452 462 413 522 704 650 701
8 6 7 7 7 5 6 6 6 5 6 2 1 2 2 1 1 2 3 3 4 2 33 99 166 215 206 214 267 210 127 65 238 271 359 365 440 329 255 164 205 172 359 358 462 501 321 583 723 732 507 435 190 164 203 243 276 303 371 735 408 386 205
6 6 7 6 5 6 9 7 9 7 5 5 3 2 3 1 1 0 2 4 4 3 3 14 84 130 179 197 166 165 149 67 87 357 584 365 288 337 210 147 227 183 433 383 469 406 199 383 492 278 178 172 6 14 157 158 153 227 316 333 373 242 164
7 8 9 8 7 8 7 8 9 10 8 7 4 4 3 2 2 1 2 2 2 3 2 1 17 97 140 193 193 176 114 21 65 183 273 261 309 261 344 243 216 282 420 329 385 478 412 222 185 155 78 50 1 0 0 0 86 214 259 280 273 257 196
0 10 8 8 10 8 7 6 7 8 9 8 8 6 1 2 2 2 3 3 4 2 2 2 1 9 91 153 198 204 135 31 70 43 51 98 170 302 163 177 257 104 122 318 300 247 135 248 46 235 158 54 0 0 0 90 207 251 171 192 160 195 206
1 2 0 0 9 8 10 7 6 6 6 5 7 8 5 4 3 3 1 2 3 3 2 1 2 0 31 111 155 162 22 85 2 0 0 24 198 166 180 168 158 84 142 291 135 49 66 68 114 128 117 71 0 0 0 88 135 122 142 127 132 131 145
9 8 2 7 9 7 9 0 0 5 6 3 8 10 9 6 6 6 3 2 1 3 3 1 0 0 14 73 118 82 82 24 10 1 5 94 133 141 82 71 96 158 189 121 61 69 71 32 57 62 20 27 0 0 0 58 74 67 87 57 24 0 0
11 6 11 9 0 2 4 4 1 8 0 0 3 5 7 7 9 6 6 4 4 4 5 5 0 12 7 33 64 43 77 66 29 16 3 77 82 67 48 79 82 97 106 48 4 65 45 34 12 0 0 0 0 0 0 11 0 0 0 0 0 0 0
3 10 11 10 8 8 8 2 4 3 2 1 0 2 7 8 6 6 5 6 7 6 4 5 1 6 21 42 34 55 76 65 37 12 8 56 73 48 50 56 65 59 70 24 52 51 28 38 18 0 0 0 0 0 11 12 0 0 0 0 0 0 0
2 9 10 6 12 1 6 2 2 2 2 0 0 1 0 2 8 4 3 4 6 5 3 4 1 0 0 0 17 57 60 66 30 5 1 9 20 35 60 70 59 58 19 28 12 42 35 33 15 9 0 0 0 18 26 22 2 2 0 0 0 0 0
Wind_Speed
21 21 20 19 20 23 24 26 27 27 26 25 25 24 23 26 31 30 28 29 30 33 34 33 28 26 26 25 23 18 18 23 23 21 23 22 19 16 16 14 16 15 14 14 10 11 13 14 14 12 13 14 15 12 11 9 9 14 12 11 13 13 13
20 22 22 21 21 23 24 27 28 27 27 25 24 22 22 25 29 30 29 25 29 32 34 32 25 21 21 20 19 20 19 21 21 21 22 22 20 16 18 14 14 13 13 12 9 9 10 12 14 14 14 13 12 12 12 11 8 13 12 12 12 12 13
20 21 22 22 22 23 23 26 27 29 29 27 27 25 23 25 26 28 30 29 31 29 35 33 19 13 15 16 19 18 22 21 21 20 18 22 18 17 17 18 18 13 13 12 10 8 10 12 13 14 16 16 13 12 13 11 10 10 13 13 10 10 13
20 20 21 22 22 22 23 25 26 28 31 29 30 31 27 26 27 30 31 30 30 30 33 29 17 11 13 16 20 20 19 17 20 21 22 17 20 19 17 17 15 14 15 12 10 10 12 12 18 14 15 13 13 14 14 13 11 12 13 14 11 12 12
20 21 21 21 21 21 22 24 25 26 29 31 31 31 31 31 31 31 30 30 30 30 30 28 21 20 19 18 20 22 22 20 19 21 22 16 19 19 17 16 15 17 16 13 11 12 12 11 14 15 14 14 13 13 14 15 9 13 11 15 13 13 13
20 21 21 22 22 22 24 25 26 26 28 33 33 32 30 31 32 30 30 29 28 27 27 25 27 26 22 20 19 19 20 20 18 19 17 16 20 19 18 18 17 16 16 14 15 16 12 13 13 14 15 16 13 14 15 17 13 11 12 14 13 15 14
19 20 21 22 23 24 25 27 30 30 29 28 32 31 31 31 32 30 29 29 28 26 23 23 25 24 19 18 19 18 20 19 17 13 13 19 20 18 18 17 16 16 17 18 13 14 12 15 13 12 14 14 15 17 16 15 16 13 13 14 13 15 15
22 22 22 23 24 26 27 27 31 32 31 30 27 31 31 31 31 30 29 28 27 26 23 20 21 20 16 16 18 18 22 22 15 16 17 21 19 17 18 19 19 18 16 18 13 13 15 13 13 14 15 17 14 18 17 16 17 16 nan 16 15 18 16
23 23 23 24 26 27 30 29 31 32 32 33 31 26 26 29 31 29 27 25 26 25 23 18 17 16 14 16 20 24 22 23 18 18 20 22 22 21 21 20 19 16 17 16 13 17 14 14 14 15 15 15 16 15 15 16 16 15 17 17 16 18 18
nan 22 23 23 25 27 29 31 32 34 34 35 33 28 26 26 27 28 27 26 24 25 23 19 15 15 16 17 20 23 22 21 21 23 24 24 24 25 23 18 17 17 17 18 18 14 15 19 15 18 16 16 15 14 15 15 16 17 18 16 17 18 21
nan nan 21 21 23 24 26 30 31 32 33 34 33 33 28 21 24 27 26 26 24 24 23 19 16 16 17 19 19 21 21 23 23 25 25 26 25 27 22 18 17 15 19 19 18 17 17 16 16 19 20 17 16 14 14 14 17 17 17 18 18 18 19
nan nan nan nan 21 21 23 26 27 27 29 27 26 26 26 23 25 26 25 25 24 22 23 21 20 19 19 18 18 19 19 23 24 25 25 26 27 28 21 18 18 18 22 19 17 18 16 17 18 22 20 19 18 17 14 14 17 15 16 20 19 19 19
nan nan nan nan nan 21 21 25 27 28 28 29 28 23 21 22 29 26 22 23 23 22 22 25 24 21 16 18 19 16 19 22 22 23 25 27 27 28 26 24 21 18 18 22 17 14 18 20 20 21 22 22 20 18 15 16 14 18 18 20 22 22 19
nan nan nan nan nan nan 22 23 25 26 26 27 26 25 23 20 23 25 23 21 21 21 23 23 26 26 20 17 18 15 17 21 21 23 25 26 30 29 28 27 21 18 21 17 19 22 20 20 20 22 23 23 21 18 12 17 14 19 21 23 20 24 20
nan nan nan nan nan nan nan nan 22 22 23 24 24 25 24 23 23 20 22 20 20 21 21 22 24 23 23 21 16 18 17 24 20 22 25 26 29 30 28 27 23 24 22 22 20 20 21 20 21 20 21 21 19 16 12 13 18 20 24 26 23 22 25
nan nan nan nan nan nan nan nan nan 20 20 22 23 23 24 23 22 24 23 21 26 21 21 22 22 24 23 20 20 19 21 19 24 24 24 24 25 26 25 26 26 27 26 23 18 19 19 22 22 21 20 21 18 15 12 19 22 22 24 26 25 23 23
nan nan nan nan nan nan nan nan nan nan nan 19 20 22 23 23 21 23 22 21 23 26 23 20 21 22 24 24 19 20 20 21 20 18 21 23 24 25 24 25 27 29 26 17 18 21 21 24 25 25 22 20 17 13 14 21 27 25 24 25 25 24 25
nan nan nan nan nan nan nan nan nan nan nan nan 17 19 22 23 25 19 19 20 21 23 26 23 16 16 22 25 21 21 21 20 20 18 21 19 23 23 24 24 26 30 30 23 24 21 21 21 24 26 23 20 17 16 20 24 24 29 26 24 25 25 24
nan nan nan nan nan nan nan nan nan nan nan nan nan 16 17 20 21 19 17 19 21 21 25 25 20 17 14 17 19 19 22 24 21 24 23 20 18 22 26 24 28 30 30 26 23 22 22 22 23 25 23 19 16 23 24 24 25 26 26 23 24 25 26
nan nan nan nan nan nan nan nan nan nan nan nan nan nan nan nan 15 18 21 24 25 23 24 26 25 21 20 18 17 19 23 26 28 25 25 20 23 25 27 28 29 29 28 25 25 22 23 24 23 23 23 21 19 32 26 25 25 27 25 24 22 23 24
nan nan nan nan nan nan nan nan nan nan nan nan nan nan nan nan nan 17 22 26 25 18 18 23 24 21 21 23 21 22 21 27 26 23 26 23 27 26 30 32 32 31 30 30 30 30 32 28 30 28 26 27 28 29 26 26 25 22 24 26 24 24 nan
nan nan nan nan nan nan nan nan nan nan nan nan nan nan nan nan nan nan 22 25 24 18 16 22 27 25 25 23 20 17 20 22 23 22 23 23 23 23 31 34 34 33 31 33 38 38 35 36 32 28 27 29 31 33 30 28 26 23 20 24 28 22 25
nan nan nan nan nan nan nan nan nan nan nan nan nan nan nan nan nan nan 19 21 22 19 19 22 25 24 24 27 23 18 23 27 25 27 29 27 28 30 32 33 35 33 27 35 42 41 38 35 34 31 26 29 30 31 32 28 22 20 25 25 nan 22 25
nan nan nan nan nan nan nan nan nan nan nan nan nan nan nan nan nan nan nan nan 20 20 20 21 20 19 21 23 25 23 22 22 25 26 27 23 26 31 28 31 37 35 32 34 40 41 33 31 33 33 39 36 34 31 30 30 28 30 25 29 32 28 27
nan nan nan nan nan nan nan nan nan nan nan nan nan nan nan nan nan nan nan nan nan nan 22 32 29 27 22 20 22 25 24 25 22 22 22 23 24 26 28 33 38 37 35 31 31 36 33 34 38 38 40 41 39 39 38 33 32 29 25 26 28 nan 25
nan nan nan nan nan nan nan nan nan nan nan nan nan nan nan nan nan nan nan nan nan nan nan 29 29 31 31 29 23 24 24 21 21 23 25 26 27 29 30 39 37 36 33 26 27 33 39 41 43 43 45 44 42 41 41 42 41 35 31 31 30 28 27
nan nan nan nan nan nan nan nan nan nan nan nan nan nan nan nan nan nan nan nan nan nan 22 30 29 30 29 25 23 23 22 18 23 24 24 23 25 27 29 36 34 31 33 27 31 32 38 41 41 41 40 39 40 44 44 43 42 41 37 34 32 29 31
nan nan nan nan nan nan nan nan nan nan nan nan nan nan nan nan nan nan nan nan nan nan 24 28 30 30 29 26 23 22 nan 23 24 26 23 24 23 26 35 33 29 29 31 30 33 37 42 39 40 40 38 35 36 38 39 40 40 37 35 35 36 32 33
nan nan nan nan nan nan nan nan nan nan nan nan nan nan nan nan nan nan nan nan nan nan nan nan 30 30 28 27 24 24 23 nan 23 23 23 25 27 31 36 38 38 35 36 35 42 39 41 38 38 38 36 41 44 44 44 42 40 37 35 32 33 40 43
nan nan nan nan nan nan nan nan nan nan nan nan nan nan nan nan nan nan nan nan nan nan nan nan nan 30 28 27 25 25 24 nan nan 22 27 29 31 40 41 39 36 34 34 37 41 41 33 33 34 35 33 43 nan nan 45 44 47 46 49 51 53 51 51
nan nan nan nan nan nan nan nan nan nan nan nan nan nan nan nan nan nan nan nan nan nan nan nan nan nan 29 29 25 23 25 nan nan 28 36 39 42 45 44 51 44 37 33 38 44 46 38 35 38 35 nan nan nan nan nan nan nan 46 50 52 52 52 53
nan nan nan nan nan nan nan nan nan nan nan nan nan nan nan nan nan nan nan nan nan nan nan nan nan nan nan 34 30 24 26 nan nan nan nan nan 44 46 47 50 54 48 41 45 49 52 51 46 nan 45 47 nan nan nan nan nan 46 47 46 47 47 47 48
nan nan nan nan nan nan nan nan nan nan nan nan nan nan nan nan nan nan nan nan nan nan nan nan nan nan nan 40 40 30 nan nan nan nan nan nan 45 46 48 48 51 nan 54 52 52 nan nan nan 42 48 50 nan nan nan nan nan 46 46 47 46 47 47 47
nan nan nan nan nan nan nan nan nan nan nan nan nan nan nan nan nan nan nan nan nan nan nan nan nan nan nan nan 48 nan nan nan nan nan nan nan 45 44 nan nan nan 52 53 52 nan nan nan nan nan nan nan nan nan nan nan nan nan nan nan nan nan nan nan
nan nan nan nan nan nan nan nan nan nan nan nan nan nan nan nan nan nan nan nan nan nan nan nan nan nan nan nan nan nan nan nan nan nan nan nan nan nan nan nan nan nan 56 nan nan nan nan nan nan nan nan nan nan nan nan nan nan nan nan nan nan nan nan
nan nan nan nan nan nan nan nan nan nan nan nan nan nan nan nan nan nan nan nan nan nan nan nan nan nan nan nan nan nan nan nan nan nan nan nan nan nan nan nan nan nan nan nan nan nan nan nan nan nan nan nan nan nan nan nan nan nan nan nan nan nan nan
nan nan nan nan nan nan nan nan nan nan nan nan nan nan nan nan nan nan nan nan nan nan nan nan nan nan nan nan nan nan nan nan nan nan nan nan nan nan nan nan nan nan nan nan nan nan nan nan nan nan nan nan nan nan nan nan nan nan nan nan nan nan nan
Wind_Direction
293 294 295 294 293 293 294 293 294 296 302 306 304 306 306 301 296 297 300 299 300 301 306 303 300 289 279 271 259 239 247 251 252 253 258 248 247 242 242 245 247 245 251 260 253 279 280 289 298 293 295 299 303 311 298 308 322 307 310 313 306 311 299
293 293 294 294 293 290 290 292 292 292 296 303 304 302 303 302 301 302 302 304 304 303 307 305 300 289 282 268 256 240 239 245 245 249 251 248 246 242 246 238 240 247 256 249 255 270 270 285 283 292 292 292 293 296 300 308 290 298 315 310 319 314 300
289 291 291 291 290 289 291 291 291 294 294 294 297 299 300 302 304 308 303 305 303 307 309 309 301 299 286 257 246 244 232 225 238 247 244 242 243 249 250 247 245 246 248 243 244 251 258 259 271 286 283 291 302 299 298 300 301 309 309 310 311 304 299
286 286 288 289 291 290 291 290 291 292 293 291 289 290 293 298 304 309 307 306 301 302 311 307 295 306 297 257 246 244 241 243 236 241 232 230 245 251 252 254 253 252 254 258 255 256 262 274 270 274 284 297 299 302 301 303 307 318 311 305 307 307 299
284 286 288 290 292 293 292 291 289 290 291 291 290 286 286 291 296 301 305 304 302 298 307 312 309 305 287 261 245 244 245 247 246 249 243 230 243 246 249 247 240 238 250 251 256 254 255 264 275 274 276 283 296 294 292 293 318 302 312 306 309 303 302
282 284 288 288 291 294 293 291 286 285 293 294 290 287 286 289 290 295 299 300 300 302 302 310 314 309 289 266 254 250 253 255 260 254 238 236 249 250 243 242 240 238 236 238 236 237 255 256 254 269 281 294 292 289 294 298 295 301 302 302 301 303 303
273 277 281 284 286 289 289 287 283 285 286 288 290 289 288 288 288 291 293 294 295 297 304 312 319 314 297 269 259 252 256 260 260 252 233 244 251 249 240 242 246 245 238 237 244 261 262 266 263 269 268 276 282 282 280 288 286 291 297 296 298 297 296
274 274 274 278 281 282 281 282 286 283 283 284 290 293 292 287 286 286 288 290 289 292 299 305 309 309 295 266 255 254 252 253 262 263 245 252 251 254 253 246 244 244 242 236 228 253 259 268 269 269 267 273 273 279 283 290 298 309 nan 291 300 291 298
273 276 276 274 274 278 283 283 284 286 286 283 282 289 290 281 281 282 285 287 287 287 291 300 310 303 296 272 257 256 255 252 252 266 258 259 253 256 254 246 240 240 245 252 243 235 250 264 264 259 261 272 275 278 280 283 286 292 295 289 288 295 301
nan 272 273 268 266 273 279 283 286 289 290 288 287 286 291 289 278 282 285 288 286 285 286 288 296 294 285 273 262 258 256 258 259 261 257 256 252 253 248 241 241 244 247 244 241 245 241 252 257 258 256 264 267 269 275 275 281 284 295 295 288 293 289
nan nan 271 267 267 269 277 282 285 289 291 293 289 285 280 278 284 285 286 289 288 282 281 280 282 290 283 265 257 255 256 257 260 260 261 260 254 254 248 240 244 249 252 249 247 244 246 248 252 261 258 258 261 262 269 277 278 282 285 292 289 288 296
nan nan nan nan 271 272 273 276 282 286 287 287 292 291 284 286 286 283 284 289 288 281 277 277 273 271 270 267 254 249 257 259 261 262 261 262 258 260 265 264 256 246 250 253 246 245 261 265 262 262 260 264 263 255 246 256 265 280 285 292 288 285 292
nan nan nan nan nan 277 276 274 273 282 290 295 302 304 291 287 284 280 278 285 286 279 275 273 270 269 274 275 265 257 261 265 266 267 263 260 262 267 273 269 260 253 254 248 254 269 269 269 262 262 262 260 265 262 255 260 255 266 263 275 286 289 293
nan nan nan nan nan nan 280 279 279 279 283 291 297 297 295 284 279 279 275 278 282 274 273 273 274 272 269 273 274 270 266 268 265 263 263 266 263 267 270 265 258 254 248 253 255 255 256 263 266 258 257 259 255 253 268 277 284 286 282 275 276 286 288
nan nan nan nan nan nan nan nan 285 284 283 282 285 290 291 285 273 267 258 254 258 267 270 270 272 276 274 268 275 269 263 263 260 263 265 265 265 264 269 268 260 252 249 243 245 254 260 262 266 265 263 260 258 250 260 287 284 277 288 279 284 293 295
nan nan nan nan nan nan nan nan nan 291 289 287 287 284 285 282 275 266 256 248 255 249 252 261 262 268 274 277 277 273 266 270 268 262 267 270 272 271 273 271 266 258 250 245 237 246 259 264 261 266 265 258 255 248 270 278 278 280 288 286 288 290 292
nan nan nan nan nan nan nan nan nan nan nan 291 291 289 284 276 266 267 266 256 251 251 250 248 253 254 261 266 274 274 273 265 265 275 277 274 275 274 271 269 266 261 254 245 250 247 255 260 260 258 259 256 261 271 268 279 285 282 281 288 291 293 292
nan nan nan nan nan nan nan nan nan nan nan nan 288 287 287 278 266 252 259 256 250 249 245 245 254 256 249 248 251 266 273 275 269 274 272 272 267 268 271 270 265 258 252 238 242 249 252 260 264 262 256 250 253 270 279 283 287 286 284 287 285 283 286
nan nan nan nan nan nan nan nan nan nan nan nan nan 279 280 279 266 252 250 251 250 246 247 245 250 261 250 254 269 267 266 265 265 262 262 253 260 271 265 266 257 253 249 243 243 249 251 257 259 260 261 261 272 272 268 275 281 282 285 283 282 284 286
nan nan nan nan nan nan nan nan nan nan nan nan nan nan nan nan 261 253 249 250 245 237 238 242 247 243 241 247 243 257 257 258 257 256 260 266 262 261 266 262 259 254 251 250 251 252 254 251 253 254 250 256 269 272 273 273 280 285 285 282 283 281 282
nan nan nan nan nan nan nan nan nan nan nan nan nan nan nan nan nan 233 236 246 246 250 250 243 240 240 243 243 240 237 249 253 252 254 249 252 255 260 264 260 256 250 246 246 248 246 243 239 236 240 246 241 243 260 270 272 268 273 277 283 284 278 nan
nan nan nan nan nan nan nan nan nan nan nan nan nan nan nan nan nan nan 235 235 244 257 258 241 238 244 242 238 247 254 247 248 255 257 262 261 263 264 262 259 257 252 246 245 248 242 240 238 240 242 243 250 255 253 254 250 243 241 266 279 259 262 278
nan nan nan nan nan nan nan nan nan nan nan nan nan nan nan nan nan nan 252 240 237 260 263 241 239 245 250 244 245 251 244 236 242 248 250 260 267 262 259 256 255 258 249 248 249 249 253 253 250 236 243 255 258 261 264 268 260 256 253 251 nan 264 263
nan nan nan nan nan nan nan nan nan nan nan nan nan nan nan nan nan nan nan nan 247 239 243 249 245 248 242 242 250 249 251 259 251 243 245 250 261 262 258 254 248 246 245 247 251 255 253 254 255 243 242 251 258 263 267 265 261 257 260 251 250 250 243
nan nan nan nan nan nan nan nan nan nan nan nan nan nan nan nan nan nan nan nan nan nan 243 230 225 226 229 235 243 245 248 259 260 252 250 255 254 260 259 257 253 245 240 238 245 253 253 252 253 253 256 257 258 254 250 256 263 262 257 258 262 nan 264
nan nan nan nan nan nan nan nan nan nan nan nan nan nan nan nan nan nan nan nan nan nan nan 244 234 235 236 233 229 240 251 254 259 260 254 245 249 246 247 256 258 250 245 244 250 257 257 252 252 257 258 258 256 260 259 252 245 251 262 263 265 267 268
nan nan nan nan nan nan nan nan nan nan nan nan nan nan nan nan nan nan nan nan nan nan 259 250 237 234 235 236 238 248 261 263 270 272 260 254 250 253 257 256 253 247 243 247 250 257 261 257 255 256 258 260 260 257 257 259 257 250 250 259 260 261 267
nan nan nan nan nan nan nan nan nan nan nan nan nan nan nan nan nan nan nan nan nan nan 259 247 242 235 235 237 240 254 nan 264 272 274 269 264 262 262 257 250 246 242 250 253 256 258 259 256 254 255 258 260 260 259 257 254 253 255 259 256 255 255 261
nan nan nan nan nan nan nan nan nan nan nan nan nan nan nan nan nan nan nan nan nan nan nan nan 240 236 233 235 242 268 272 nan 274 277 273 269 263 257 252 243 235 247 250 248 252 249 246 245 253 257 259 258 254 252 249 248 247 246 248 259 257 252 250
nan nan nan nan nan nan nan nan nan nan nan nan nan nan nan nan nan nan nan nan nan nan nan nan nan 234 234 233 250 267 270 nan nan 276 271 258 258 254 246 247 248 241 249 252 259 262 253 250 250 250 255 256 nan nan 250 249 248 249 252 254 255 257 258
nan nan nan nan nan nan nan nan nan nan nan nan nan nan nan nan nan nan nan nan nan nan nan nan nan nan 235 235 245 267 270 nan nan 272 268 260 259 257 249 237 240 251 244 246 258 266 270 261 251 247 nan nan nan nan nan nan nan 251 252 252 253 254 255
nan nan nan nan nan nan nan nan nan nan nan nan nan nan nan nan nan nan nan nan nan nan nan nan nan nan nan 237 245 266 265 nan nan nan nan nan 254 256 253 246 235 237 248 248 252 253 247 243 nan 246 248 nan nan nan nan nan 259 259 257 254 252 253 254
nan nan nan nan nan nan nan nan nan nan nan nan nan nan nan nan nan nan nan nan nan nan nan nan nan nan nan 238 236 248 nan nan nan nan nan nan 255 252 251 247 238 nan 242 245 248 nan nan nan 248 250 248 nan nan nan nan nan 259 260 259 258 256 254 254
nan nan nan nan nan nan nan nan nan nan nan nan nan nan nan nan nan nan nan nan nan nan nan nan nan nan nan nan 238 nan nan nan nan nan nan nan 251 253 nan nan nan 234 240 244 nan nan nan nan nan nan nan nan nan nan nan nan nan nan nan nan nan nan nan
nan nan nan nan nan nan nan nan nan nan nan nan nan nan nan nan nan nan nan nan nan nan nan nan nan nan nan nan nan nan nan nan nan nan nan nan nan nan nan nan nan nan 241 nan nan nan nan nan nan nan nan nan nan nan nan nan nan nan nan nan nan nan nan
nan nan nan nan nan nan nan nan nan nan nan nan nan nan nan nan nan nan nan nan nan nan nan nan nan nan nan nan nan nan nan nan nan nan nan nan nan nan nan nan nan nan nan nan nan nan nan nan nan nan nan nan nan nan nan nan nan nan nan nan nan nan nan
nan nan nan nan nan nan nan nan nan nan nan nan nan nan nan nan nan nan nan nan nan nan nan nan nan nan nan nan nan nan nan nan nan nan nan nan nan nan nan nan nan nan nan nan nan nan nan nan nan nan nan nan nan nan nan nan nan nan nan nan nan nan nan